NEPP SITE NEAR MIDDLETOWN 4W CT US NWS current weather conditions

sailwx.info

Wind from 038

Air temperature 18.3° C

Last reported at 2019-Jun-19 11:25 UTC.
Time now 2019-Jun-19 12:45 UTC

Location: N 41°20' W 072°26'.
View on Google Maps.

See reports from other nearby stations

  
Tides and Currents Weather Stations Pressure Air Temp Water Temp Dewpoint Dewpoint Depression Visibility Wind Speed Wind Dir Waves Ship Positions
date/time (UTC)wind fromknots sea level pressurealtimeterstation pressurevisibilityair tempwater tempwave heightnotes
2019-Jun-19 11:25 038 18.3
2019-Jun-19 10:25 296 17.8
2019-Jun-19 09:25 295 17.5
2019-Jun-19 08:25 293 17.5
2019-Jun-19 07:25 282 17.6
2019-Jun-19 06:25 309 0 gusting 2 17.5
2019-Jun-19 05:25 315 0 gusting 1 17.6
2019-Jun-19 04:25 337 0 gusting 2 17.8
2019-Jun-19 03:25 334 17.9
2019-Jun-19 02:25 332 1 gusting 2 18.2
2019-Jun-19 01:25 342 18.5
2019-Jun-19 00:25 267 0 gusting 0 18.5
2019-Jun-18 23:25 004 0 gusting 1 18.6
2019-Jun-18 22:25 077 18.9
2019-Jun-18 21:25 069 1 gusting 3 19.0
2019-Jun-18 20:25 132 1 gusting 3 19.2
2019-Jun-18 19:25 107 1 gusting 3 19.6
2019-Jun-18 18:25 051 1 gusting 3 19.7
2019-Jun-18 17:25 353 1 gusting 3 19.6
2019-Jun-18 16:25 056 19.6
2019-Jun-18 15:25 141 19.6
2019-Jun-18 14:25 107 19.4
2019-Jun-18 13:25 122 19.0
2019-Jun-18 12:25 131 0 gusting 2 18.7
2019-Jun-18 11:25 145 18.7
2019-Jun-18 10:25 169 18.6
2019-Jun-18 09:25 168 18.6
2019-Jun-18 08:25 180 18.8
2019-Jun-18 07:25 115 1 gusting 1 19.2
2019-Jun-18 06:25 151 0 gusting 2 19.2
2019-Jun-18 05:25 149 0 gusting 1 19.5
2019-Jun-18 04:25 150 1 gusting 4 19.8
2019-Jun-18 03:25 152 0 gusting 2 19.4
2019-Jun-18 02:25 140 0 gusting 2 19.0
2019-Jun-18 01:25 150 1 gusting 2 19.5
2019-Jun-18 00:25 149 0 gusting 0 20.6
2019-Jun-17 23:25 151 0 gusting 1 22.4
2019-Jun-17 22:25 151 1 gusting 4 23.2
2019-Jun-17 21:25 152 2 gusting 4 24.6
2019-Jun-17 20:25 183 0 gusting 5 24.8
2019-Jun-17 19:25 224 24.2
2019-Jun-17 18:25 116 0 gusting 1 24.5